{"data":{"norad_id":68843,"intl_designator":"2026-094E","name":"STARLINK-37219","alt_names":[],"object_type":"PAYLOAD","status":"ACTIVE","operator":null,"country":"US","launch_date":"2026-04-26","launch_site_code":"AFWTR","launch_vehicle":null,"mission":null,"orbit_class":"UNKNOWN","rcs_meters":null,"size_class":null,"mass_kg":null,"dimensions":null,"purposes":["comms"],"wikipedia_slug":null,"has_3d_model":false,"image_url":null,"decayed_at":null,"tle_current":{"epoch":"2026-05-24T23:41:38.831136Z","epoch_age_seconds":73206,"freshness":"FRESH","line1":"1 68843U 26094E   26144.98725499  .00315910  00000+0  20309-2 0  9994","line2":"2 68843  97.2845 159.9228 0000732  83.4147 276.7202 15.75309395  4503","mean_motion":15.75309395,"eccentricity":7.32e-5,"inclination_deg":97.2845,"raan_deg":159.9228,"arg_perigee_deg":83.4147,"mean_anomaly_deg":276.7202,"bstar":0.0020309,"rev_number":450,"period_min":91.41061461136,"perigee_km":343.25886390284,"apogee_km":344.24294829229,"semimajor_km":6721.8879060976,"source":"CELESTRAK","updated_at":"2026-05-25T13:38:22.046353Z"}}}